Regional Weather Roundup
Issued by NWS

Home | Current Version | Previous Version | Graphics & Text | Print | Product List | Glossary On
Versions: 1 2 3 4 5 6 7 8 9 10 11 12 13 14 15 16 17 18 19 20 21 22 23 24 25 26 27
000
ASUS45 KBOI 081710
RWRID

IDAHO REGIONAL WEATHER ROUNDUP
NATIONAL WEATHER SERVICE BOISE ID
1000 AM MST THU DEC 08 2016

NOTE: "FAIR" INDICATES FEW OR NO CLOUDS BELOW 12000 FEET
WITH NO SIGNIFICANT WEATHER AND/OR OBSTRUCTIONS TO VISIBILITY

IDZ012-014-081800-
SOUTHWEST IDAHO


CITY           SKY/WX    TMP DP  RH WIND       PRES   REMARKS
BOISE          CLOUDY    20  10  65 SE9       30.24S WCI   9
CALDWELL       CLOUDY    21  15  78 E10       30.26F WCI  10
MOUNTAIN HOME  CLOUDY    24  13  62 SE17      30.23F WCI  11
$$

IDZ016-017-081800-
SOUTHCENTRAL IDAHO


CITY           SKY/WX    TMP DP  RH WIND       PRES   REMARKS
BURLEY         CLOUDY    12   7  80 NE17      30.22F WCI  -5
JEROME         CLOUDY    17   9  70 NE22G30   30.23R WCI   0
TWIN FALLS     FLURRIES  14   9  80 E14       30.23R WCI  -1
$$

IDZ019>023-081800-
SOUTHEAST IDAHO


CITY           SKY/WX    TMP DP  RH WIND       PRES   REMARKS
IDAHO FALLS    CLOUDY    11   3  70 CALM      30.27F
POCATELLO      CLOUDY     8   3  80 NE8       30.28S WCI  -4
REXBURG        CLOUDY     1  -5  75 NE7       30.28F WCI -12
$$

IDZ006-010-011-018-031-032-081800-
CENTRAL IDAHO MOUNTAINS


CITY           SKY/WX    TMP DP  RH WIND       PRES   REMARKS
MCCALL         CLOUDY     1  -3  83 CALM      30.09F FOG
HAILEY         CLOUDY     9   0  66 NW16      30.22S WCI  -9
STANLEY          N/A    -14 -19  79 CALM      30.15R
SALMON         CLOUDY     0  -2  92 CALM      30.34S
CHALLIS        MOSUNNY    3  -2  79 S3        30.26R
$$

IDZ002-004-006-007-026-081800-
NORTHERN IDAHO


CITY           SKY/WX    TMP DP  RH WIND       PRES   REMARKS
LEWISTON       MOSUNNY   15  10  80 SE5       30.31S WCI   8
LOWELL           N/A     18   8  65 CALM      30.41F
COEUR D`ALENE  SUNNY     15   5  64 N16       30.32F WCI  -1
MULLAN PASS    CLOUDY     0  -4  83 VRB7      30.05S FOG     WCI -13
$$




USA.gov is the U.S. government's official web portal to all federal, state and local government web resources and services.